Location: Bruderhein
(53.8035°N, 112.9265°W)
Time: 18:31:48
(UTC+00:00)

CUTE 1.7 + AOD 2 - Visible Passes

Search period start: 28 March 2023 00:00
Search period end: 07 April 2023 00:00
Orbit: 584 x 602 km, 97.7° (Epoch: 27 March)

Date Brightness Start Highest point End Pass type
(mag) Time Alt. Az. Time Alt. Az. Time Alt. Az.
28 Mar ? 11:14:46 10° NNE 11:18:59 68° ESE 11:22:30 14° S visible
29 Mar ? 09:50:06 10° ENE 09:51:40 12° E 09:53:15 10° ESE visible
29 Mar ? 11:23:44 10° NNE 11:27:58 83° ESE 11:31:43 13° SSW visible
30 Mar ? 09:58:27 10° NE 10:00:45 14° E 10:03:03 10° ESE visible
30 Mar ? 11:32:41 10° NNE 11:36:56 83° WNW 11:40:56 11° SSW visible
31 Mar ? 10:07:01 10° NE 10:09:48 17° E 10:12:36 10° SE visible
31 Mar ? 11:41:40 10° N 11:45:51 69° WNW 11:50:03 10° SSW visible
01 Apr ? 10:15:40 10° NE 10:18:51 20° E 10:22:00 10° SE visible
01 Apr ? 11:50:38 10° N 11:54:47 57° WNW 11:58:55 10° SSW visible
02 Apr ? 10:24:23 10° NE 10:27:51 24° E 10:31:18 10° SSE visible
02 Apr ? 11:59:36 10° N 12:03:40 47° WNW 12:07:43 10° SW visible
03 Apr ? 10:33:08 10° NNE 10:36:50 29° E 10:40:32 10° SSE visible
03 Apr ? 12:08:35 10° N 12:12:32 40° WNW 12:16:29 10° SW visible
04 Apr ? 10:41:55 10° NNE 10:45:48 34° E 10:49:40 10° SSE visible
04 Apr ? 12:17:34 10° N 12:21:23 34° WNW 12:25:11 10° SW visible
05 Apr ? 10:50:43 10° NNE 10:54:44 41° E 10:58:45 10° S visible
06 Apr ? 10:59:31 10° NNE 11:03:39 49° E 11:07:46 10° S visible
